Vertical_Velocity
2 0 -1 1 -0 -1 0 -0 -2 1 -4 -4 -2 -6 -1 -4 -2 2 -5 -4 -6 -5 -6 -5 -5 -6 -3 -2 1 1 2 -2 -2 -3 -2 -7 -3 -6
1 2 -1 0 -0 0 -0 1 1 4 4 0 -12 2 -8 1 -3 -4 -3 -1 -4 -7 -6 -6 -7 -3 -3 -3 -1 1 -4 -5 -3 -6 -5 -7 -5 -4
1 -2 -1 0 -1 3 -1 1 -2 -0 10 -1 3 -4 -5 -1 1 1 2 3 2 -5 -7 -9 -9 -9 -7 -7 -5 -7 -7 -8 -3 -4 -4 -1 -2 -7
-1 0 -1 -1 1 -2 -0 3 -1 -1 -1 10 -1 -1 -4 -2 -1 -1 -2 -8 -3 -1 4 -0 2 1 -2 -4 -8 -11 -6 -7 -6 -3 1 -3 -3 -1
-0 0 0 1 -1 -2 -3 -1 0 -3 -5 -3 4 -2 -0 -5 -0 -4 -4 1 -5 -3 -1 -9 -3 -1 -2 -6 -4 -6 -4 -0 -3 2 -2 -2 -4 0
1 1 -4 -5 -1 2 -1 -2 -2 -1 -5 -1 -6 -2 -3 -1 -4 -6 8 -2 -3 -7 -0 -18 -2 -7 -7 3 -7 -16 -7 -4 1 2 -1 1 -1 -2
1 1 -1 -0 -1 -0 2 -2 -3 -3 -5 -0 -3 -3 -5 -3 -6 2 -4 -2 5 -15 6 -14 8 -2 -5 4 -2 -4 -9 -8 -9 -4 -2 2 2 1
-2 -3 1 -1 1 -1 0 -2 -1 -3 -4 -3 -3 -1 1 -7 -3 -1 -5 0 17 3 -6 16 -13 5 -0 -4 -12 -7 -1 -3 -3 -3 0 -2 1 0
0 -1 1 0 -0 1 1 0 -2 -3 -4 -1 5 -8 1 -5 -3 3 -5 -5 -9 -4 -20 5 -5 2 -2 5 0 -6 -2 -4 -3 -1 -1 -3 -0 2
1 -1 1 -1 3 -1 1 -1 -2 -4 -0 -3 -5 -4 -7 -6 -7 -6 -8 -2 1 8 -30 -4 -3 6 7 1 3 -3 -8 -6 -3 -1 0 0 0 1
3 1 1 -0 -1 2 2 1 -3 -3 -2 -5 -3 -3 -6 -5 -12 -10 -8 -6 2 10 -19 -7 -3 0 1 3 6 -6 -3 -8 -6 -0 -1 2 -0 -2
-0 0 -3 -1 -1 1 -1 -1 -1 0 -2 -0 -4 -5 -6 -5 -5 -8 -11 -6 -6 6 -11 -4 0 -11 -4 19 17 4 3 -6 -6 -2 -0 -1 -2 -1
3 -1 1 -1 -1 1 -1 -1 -4 -0 1 -2 -2 -3 -3 -1 -2 -1 -5 -9 -1 -0 -11 -14 -3 -3 -13 -14 14 1 -4 2 0 -4 -6 -3 -0 -2
1 -0 3 -2 -0 -2 -5 -3 -1 -1 -3 -6 -3 -2 -0 1 -2 0 0 -4 -3 -10 -8 -10 -3 -8 -1 7 -2 8 5 -3 -8 2 -1 -0 -1 0
-1 2 2 0 -5 -1 -4 -3 -2 -3 -4 -2 -3 -3 -5 -7 -5 -2 0 -5 4 -1 2 -7 -5 -6 -7 -5 -4 4 0 12 -6 -1 -0 2 1 -3
0 1 1 -4 -5 -2 -5 -6 -5 -2 -2 -1 -3 -3 -6 -1 -1 -6 -2 -3 2 12 0 -4 -6 -7 -0 -7 -5 3 -4 -2 5 -2 0 1 -0 -1
1 0 -1 -6 -3 -2 -6 -5 -3 -3 -3 -6 -7 -6 -5 -4 1 -5 -8 4 4 -6 12 6 -2 -4 1 -13 3 -8 1 1 -3 1 -1 1 -1 -2
-3 -2 -3 -5 -2 -5 -2 -2 -3 -2 -7 -8 -5 -5 -2 -4 -2 4 -4 -7 4 4 5 -3 -1 4 10 -0 -25 -0 1 -1 1 -2 -5 -0 2 -5
-5 -0 -4 -4 -3 -3 -3 -2 -3 -8 -5 -3 -1 -10 -5 -2 5 9 1 -4 3 1 1 -5 -1 -3 3 13 6 -24 4 -1 -0 -2 -5 -3 -1 1
-3 -3 -1 -5 -3 -2 -4 -8 -6 -3 -7 -7 -11 6 -6 -7 0 -7 -0 -2 -2 3 5 -2 -4 -1 -3 2 6 4 -8 0 -1 1 -1 -2 -4 -4
-3 1 -3 -6 -5 -9 -6 -5 -8 -5 -3 -1 1 -10 -4 -3 -2 -6 -3 -5 -3 -4 2 1 -1 -1 -1 1 1 -2 -2 -5 -3 -4 -2 0 1 -1
-5 -1 -2 -4 -7 -8 -7 -2 -2 -5 -4 -4 0 -13 0 -8 -4 -4 -3 -1 0 -2 2 -1 -0 2 -2 -0 1 0 3 3 -3 -3 -5 -1 -1 2
2 -3 -9 -8 -13 -3 -1 -4 -8 -3 -5 -1 -3 -3 -7 -2 -4 -6 -5 -3 -5 -1 0 2 -1 -3 -4 -0 -2 -2 -1 0 1 7 -4 -7 -6 -6
Height
5768 5769 5768 5768 5767 5766 5765 5763 5761 5759 5756 5752 5748 5745 5741 5736 5732 5727 5723 5718 5713 5708 5701 5695 5689 5682 5675 5668 5661 5652 5644 5635 5627 5619 5610 5602 5595 5588
5758 5759 5758 5758 5756 5755 5753 5752 5750 5748 5744 5741 5737 5733 5730 5725 5721 5715 5709 5703 5696 5690 5682 5675 5667 5660 5653 5645 5636 5627 5618 5608 5598 5587 5577 5566 5556 5549
5747 5748 5748 5746 5747 5744 5742 5741 5738 5735 5733 5727 5724 5721 5717 5714 5708 5702 5694 5688 5680 5671 5663 5655 5646 5637 5629 5621 5612 5602 5592 5581 5569 5554 5541 5529 5520 5515
5737 5736 5736 5734 5734 5732 5731 5728 5726 5722 5719 5716 5710 5707 5702 5698 5693 5686 5679 5671 5662 5653 5643 5633 5623 5614 5602 5592 5583 5574 5562 5549 5537 5523 5508 5503 5497 5493
5724 5723 5723 5722 5721 5719 5717 5714 5712 5709 5705 5702 5698 5692 5687 5682 5676 5669 5660 5652 5642 5633 5622 5613 5603 5592 5580 5567 5555 5543 5531 5518 5508 5495 5486 5481 5478 5477
5712 5710 5711 5710 5707 5705 5702 5701 5698 5695 5691 5687 5682 5677 5671 5664 5659 5651 5644 5632 5622 5613 5601 5591 5580 5567 5553 5539 5525 5514 5503 5492 5483 5474 5469 5464 5462 5462
5701 5701 5699 5697 5694 5693 5690 5688 5685 5681 5676 5672 5666 5660 5653 5647 5641 5633 5624 5614 5601 5592 5583 5567 5560 5541 5523 5510 5498 5486 5477 5470 5463 5456 5452 5449 5448 5447
5688 5690 5687 5685 5682 5679 5677 5674 5670 5666 5661 5656 5650 5643 5636 5630 5621 5613 5603 5594 5586 5566 5563 5549 5534 5518 5502 5488 5476 5468 5460 5452 5444 5438 5434 5434 5433 5432
5678 5677 5675 5673 5670 5668 5665 5661 5656 5651 5646 5640 5634 5627 5620 5610 5603 5594 5583 5572 5558 5544 5536 5530 5511 5498 5484 5474 5461 5452 5446 5438 5429 5422 5419 5418 5418 5417
5666 5665 5663 5662 5660 5657 5653 5647 5642 5638 5631 5625 5618 5610 5600 5591 5582 5572 5562 5552 5537 5519 5503 5505 5488 5479 5470 5459 5447 5436 5429 5422 5415 5409 5405 5404 5403 5403
5656 5653 5651 5649 5647 5645 5640 5636 5630 5624 5617 5610 5600 5591 5581 5571 5560 5551 5539 5528 5516 5499 5476 5474 5466 5459 5454 5446 5432 5421 5414 5407 5401 5396 5392 5391 5390 5389
5644 5642 5641 5638 5635 5632 5628 5623 5618 5611 5604 5594 5583 5573 5563 5552 5540 5525 5514 5504 5490 5481 5458 5454 5445 5433 5439 5432 5418 5409 5401 5394 5388 5383 5379 5377 5376 5376
5634 5633 5630 5627 5623 5619 5615 5610 5604 5596 5588 5579 5569 5558 5545 5532 5518 5503 5488 5477 5467 5455 5441 5433 5427 5420 5413 5414 5409 5396 5389 5384 5377 5371 5367 5365 5364 5362
5625 5623 5620 5618 5614 5609 5604 5597 5589 5581 5572 5562 5552 5539 5527 5513 5498 5485 5470 5457 5445 5435 5426 5414 5411 5402 5399 5396 5392 5384 5377 5370 5366 5361 5357 5355 5352 5351
5615 5613 5610 5607 5603 5597 5591 5582 5573 5564 5555 5545 5533 5520 5506 5492 5478 5466 5454 5443 5432 5416 5406 5398 5394 5390 5383 5380 5376 5371 5367 5360 5354 5350 5347 5345 5342 5339
5606 5603 5600 5596 5591 5583 5575 5567 5558 5547 5537 5525 5513 5500 5486 5472 5459 5447 5438 5426 5417 5406 5392 5382 5379 5374 5371 5366 5361 5358 5352 5349 5345 5339 5337 5333 5330 5328
5597 5594 5590 5584 5577 5569 5561 5552 5541 5529 5517 5505 5492 5479 5466 5454 5441 5427 5416 5407 5397 5390 5383 5375 5367 5361 5357 5352 5349 5345 5342 5339 5333 5331 5327 5324 5320 5317
5588 5584 5578 5571 5564 5556 5546 5534 5522 5510 5498 5485 5472 5460 5448 5434 5422 5407 5395 5385 5378 5370 5365 5361 5357 5353 5349 5340 5335 5333 5332 5328 5325 5321 5317 5315 5312 5305
5578 5572 5565 5558 5550 5539 5528 5517 5506 5493 5481 5468 5455 5441 5429 5415 5401 5390 5379 5369 5362 5354 5348 5345 5343 5341 5339 5337 5329 5320 5323 5321 5318 5313 5309 5305 5302 5297
5564 5559 5551 5541 5532 5524 5513 5501 5489 5477 5464 5450 5438 5426 5414 5401 5387 5375 5363 5355 5347 5343 5339 5334 5333 5331 5328 5327 5324 5319 5314 5315 5311 5307 5303 5298 5292 5286
5552 5543 5535 5529 5520 5510 5498 5485 5474 5462 5449 5438 5425 5415 5399 5387 5374 5361 5353 5344 5337 5333 5331 5327 5325 5323 5321 5319 5317 5315 5310 5306 5303 5300 5296 5292 5286 5278
5538 5532 5525 5516 5506 5495 5483 5472 5459 5449 5438 5425 5414 5401 5389 5376 5366 5357 5348 5341 5335 5330 5327 5323 5321 5320 5317 5315 5313 5311 5308 5303 5297 5292 5287 5284 5278 5274
5527 5521 5513 5502 5491 5482 5469 5460 5450 5436 5428 5417 5404 5393 5383 5373 5362 5354 5347 5340 5334 5331 5327 5324 5320 5316 5314 5312 5309 5306 5303 5298 5294 5289 5281 5276 5271 5267